Retour au catalogue

DELTA 1 DEB

ActifSSO
NORAD 14465·DEBRIS·🇺🇸 United States

Lancé Mar 5, 1978 depuis Vandenberg Space Force Base

Loading…

Prochains Passages (prochaines 24 heures)

TLE

FraisSource: Space-Track

Époque: Sep 14, 2026, 09:04 UTC

1 14465U 78026GF  26257.37843534  .00001373  00000-0  65771-3 0  9995
2 14465  98.7801  54.7466 0103337 340.0312  48.9404 14.17902245231502

Suivez DELTA 1 DEB en temps réel avec AllMySat

Download on the App Store